Location: Unspecified
(0.0000°N, 0.0000°E)
Time: 02:20:22
(UTC+00:00)

Tiros 1 - Pass Details

Date: 19 April 2026
Orbit: 618 x 648 km, 48.4° (Epoch: 15 May)

Event Time Altitude Azimuth Distance (km) Brightness Sun altitude
Rises 18:46:31 0° 306° (NW) 2,937 11.8 -11.6°
Reaches altitude 10° 18:48:58 10° 298° (WNW) 2,033 11.0 -12.2°
Maximum altitude 18:53:17 36° 231° (SW) 1,017 8.5 -13.3°
Drops below altitude 10° 18:57:37 10° 164° (SSE) 2,043 9.4 -14.3°
Enters shadow 18:58:50 - 159° (SSE) 2,481 9.8 -14.6°
